This is the latest recevied weather packets stored in our database for station/object VU3KEB-1. If no packets are shown the sender has not sent any weather packets the latest 10 day(s).
| Time | Temp. | Humidity | Pressure | Rain* | Wind** | Luminosity | Snow |
|---|---|---|---|---|---|---|---|
| 1788501977 | 28.89° C | 59% | 1034.8 hPa | - | - | - | - |
| 1788500761 | 28.33° C | 59% | 1034.8 hPa | - | - | - | - |
| 1788499546 | 27.78° C | 59% | 1034.8 hPa | - | - | - | - |
| 1788498332 | 27.22° C | 64% | 1035.1 hPa | - | - | - | - |
| 1788495875 | 26.67° C | 64% | 1035.1 hPa | - | - | - | - |
| 1788440907 | 25° C | 74% | 1031.5 hPa | - | - | - | - |
| 1788436051 | 25.56° C | 85% | 1031 hPa | - | - | - | - |
| 1788434837 | 26.11° C | 85% | 1031 hPa | - | - | - | - |
| 1788433623 | 26.67° C | 71% | 1030.4 hPa | - | - | - | - |
| 1788431196 | 30° C | 71% | 1030.4 hPa | - | - | - | - |
| 1788429983 | 30.56° C | 49% | 1030.8 hPa | - | - | - | - |
| 1788428769 | 31.11° C | 49% | 1030.8 hPa | - | - | - | - |
| 1788427555 | 30.56° C | 49% | 1030.8 hPa | - | - | - | - |
| 1788426337 | 30.56° C | 48% | 1031.5 hPa | - | - | - | - |
| 1788425124 | 30.56° C | 48% | 1031.5 hPa | - | - | - | - |
| 1788423909 | 30.56° C | 48% | 1031.5 hPa | - | - | - | - |
| 1788422695 | 30.56° C | 50% | 1032.4 hPa | - | - | - | - |
| 1788421481 | 30° C | 50% | 1032.4 hPa | - | - | - | - |
| 1788420266 | 30° C | 50% | 1032.4 hPa | - | - | - | - |
| 1788419052 | 29.44° C | 52% | 1033.3 hPa | - | - | - | - |
| 1788417838 | 29.44° C | 52% | 1033.6 hPa | - | - | - | - |
| 1788416624 | 28.89° C | 52% | 1033.6 hPa | - | - | - | - |
| 1788415410 | 28.89° C | 57% | 1034.5 hPa | - | - | - | - |
| 1788414191 | 27.78° C | 57% | 1034.5 hPa | - | - | - | - |
| 1788412970 | 27.78° C | 57% | 1034.5 hPa | - | - | - | - |
* Rain since midnight (hover to see other rain measurements)
** Current wind speed in m/s (hover to see current wind gust speed)